Weather History for Mount Pleasant, IA

Change the Weather History Date:

Monday, August 19, 2013

  Actual Average Record
Temperature  
Mean Temperature 72 °F -  
Max Temperature 86 °F 83 °F 102 °F (1983)
Min Temperature 58 °F 62 °F 52 °F (1950)
Cooling Degree Days 7    
Growing Degree Days 22 (Base 50)    
Moisture  
Dew Point 61 °F    
Average Humidity 71    
Maximum Humidity 94    
Minimum Humidity 43    
Precipitation  
Precipitation 0.00 in - - ()
Sea Level Pressure  
Sea Level Pressure 30.09 in    
Wind  
Wind Speed 4 mph (South)    
Max Wind Speed 13 mph    
Max Gust Speed -    
Visibility 8 miles    
Events      
Averages and records for this station are not official NWS values.
T = Trace of Precipitation, MM = Missing Value Source: NWS Daily Summary

Daily Weather History Graph

Daily Weather History Graph

Search for Another Location

Airport:

Trip Planner

Search our weather history database for the weather conditions in past years. The results will help you decide how hot, cold, wet, or windy it might be!

Date:

Astronomy

Aug. 19, 2013 Rise Set
Actual Time 6:20 AM CDT 7:58 PM CDT
Civil Twilight 5:51 AM CDT 8:27 PM CDT
Nautical Twilight 5:15 AM CDT 9:02 PM CDT
Astronomical Twilight 4:38 AM CDT 9:39 PM CDT
Moon 6:49 PM CDT (8/19) 4:39 AM CDT (8/19)
Length of Visible Light 14h 36m
Length of Day
13h 38m
Waxing Gibbous, 97% of the Moon is Illuminated
Aug 19
Waxing Gibbous
Aug 20
Full
Aug 28
Last Quarter
Sep 5
New
Sep 12
First Quarter

Hourly Weather History & Observations

Time (CDT) Temp. Heat Index Dew Point Humidity Pressure Visibility Wind Dir Wind Speed Gust Speed Precip Events Conditions
12:15 AM 63.5 °F - 59.9 °F 88% 30.12 in 10.0 mi SSE 4.6 mph - N/A   Clear
12:35 AM 63.0 °F - 59.2 °F 87% 30.12 in 10.0 mi SSE 4.6 mph - N/A   Clear
12:55 AM 63.5 °F - 59.9 °F 88% 30.12 in 10.0 mi South 3.5 mph - N/A   Clear
1:15 AM 63.7 °F - 60.3 °F 89% 30.12 in 10.0 mi South 4.6 mph - N/A   Clear
1:35 AM 63.5 °F - 60.3 °F 89% 30.12 in 10.0 mi South 3.5 mph - N/A   Clear
1:55 AM 62.6 °F - 59.5 °F 90% 30.12 in 10.0 mi South 3.5 mph - N/A   Clear
2:15 AM 62.1 °F - 59.5 °F 91% 30.12 in 7.0 mi South 3.5 mph - N/A   Clear
2:35 AM 62.6 °F - 59.9 °F 91% 30.11 in 7.0 mi South 3.5 mph - N/A   Clear
2:55 AM 61.7 °F - 59.2 °F 91% 30.11 in 7.0 mi South 3.5 mph - N/A   Clear
3:15 AM 61.9 °F - 59.7 °F 93% 30.11 in 7.0 mi South 3.5 mph - N/A   Clear
3:35 AM 61.2 °F - 59.0 °F 93% 30.11 in 7.0 mi Calm Calm - N/A   Clear
3:55 AM 60.8 °F - 58.8 °F 93% 30.11 in 5.0 mi SSW 3.5 mph - N/A   Clear
4:15 AM 61.2 °F - 59.4 °F 94% 30.11 in 5.0 mi Calm Calm - N/A   Clear
4:35 AM 60.6 °F - 58.6 °F 93% 30.11 in 5.0 mi South 3.5 mph - N/A   Clear
4:55 AM 59.5 °F - 57.6 °F 93% 30.11 in 5.0 mi South 4.6 mph - N/A   Clear
5:15 AM 58.8 °F - 56.8 °F 93% 30.11 in 5.0 mi South 3.5 mph - N/A   Clear
5:35 AM 59.0 °F - 57.2 °F 94% 30.12 in 4.0 mi Calm Calm - N/A   Clear
5:55 AM 59.5 °F - 57.7 °F 94% 30.12 in 2.5 mi Calm Calm - N/A   Scattered Clouds
6:15 AM 59.0 °F - 57.0 °F 93% 30.12 in 3.0 mi Calm Calm - N/A   Clear
6:35 AM 59.9 °F - 58.1 °F 94% 30.12 in 2.0 mi South 3.5 mph - N/A   Clear
6:55 AM 59.4 °F - 57.6 °F 94% 30.13 in 1.8 mi South 3.5 mph - N/A   Mist
7:15 AM 60.4 °F - 58.5 °F 93% 30.13 in 3.0 mi South 3.5 mph - N/A   Clear
7:35 AM 61.2 °F - 59.2 °F 93% 30.13 in 3.0 mi SSE 3.5 mph - N/A   Clear
7:55 AM 63.7 °F - 61.2 °F 91% 30.13 in 4.0 mi Calm Calm - N/A   Clear
8:15 AM 66.7 °F - 62.6 °F 86% 30.13 in 5.0 mi Calm Calm - N/A   Clear
8:35 AM 68.7 °F - 62.8 °F 81% 30.13 in 7.0 mi South 3.5 mph - N/A   Clear
8:55 AM 70.5 °F - 63.3 °F 78% 30.13 in 10.0 mi SW 3.5 mph - N/A   Clear
9:15 AM 72.0 °F - 62.6 °F 72% 30.13 in 10.0 mi SSW 3.5 mph - N/A   Clear
9:35 AM 73.4 °F - 63.0 °F 70% 30.13 in 10.0 mi Calm Calm - N/A   Clear
9:55 AM 75.2 °F - 63.7 °F 67% 30.13 in 10.0 mi Calm Calm - N/A   Clear
10:15 AM 77.2 °F - 63.9 °F 63% 30.13 in 10.0 mi Calm Calm - N/A   Clear
10:35 AM 78.4 °F - 62.8 °F 58% 30.13 in 10.0 mi Calm Calm - N/A   Clear
10:55 AM 79.2 °F - 63.0 °F 57% 30.13 in 10.0 mi SW 3.5 mph - N/A   Clear
11:15 AM 80.1 °F 81.2 °F 61.9 °F 54% 30.13 in 10.0 mi SSW 3.5 mph - N/A   Clear
11:35 AM 80.8 °F 81.8 °F 61.7 °F 52% 30.12 in 10.0 mi SW 6.9 mph - N/A   Clear
11:55 AM 81.9 °F 82.5 °F 61.0 °F 49% 30.11 in 10.0 mi SSW 3.5 mph - N/A   Scattered Clouds
12:15 PM 82.4 °F 83.2 °F 61.9 °F 50% 30.10 in 10.0 mi South 11.5 mph - N/A   Scattered Clouds
12:35 PM 82.4 °F 82.7 °F 60.4 °F 47% 30.10 in 10.0 mi South 9.2 mph - N/A   Clear
12:55 PM 82.8 °F 83.1 °F 60.8 °F 47% 30.10 in 10.0 mi SSE 4.6 mph - N/A   Clear
1:15 PM 82.6 °F 82.9 °F 60.6 °F 47% 30.10 in 10.0 mi South 5.8 mph - N/A   Scattered Clouds
1:35 PM 84.2 °F 84.6 °F 61.2 °F 46% 30.09 in 10.0 mi South 4.6 mph - N/A   Scattered Clouds
1:55 PM 82.8 °F 83.4 °F 61.7 °F 49% 30.08 in 10.0 mi South 9.2 mph - N/A   Scattered Clouds
2:15 PM 82.9 °F 83.5 °F 61.2 °F 48% 30.08 in 10.0 mi South 6.9 mph - N/A   Clear
2:35 PM 86.0 °F 86.1 °F 61.0 °F 43% 30.07 in 10.0 mi South 6.9 mph - N/A   Clear
2:55 PM 82.4 °F 82.6 °F 59.9 °F 46% 30.07 in 10.0 mi SSW 8.1 mph - N/A   Scattered Clouds
3:15 PM 83.8 °F 84.3 °F 61.5 °F 47% 30.06 in 10.0 mi South 9.2 mph - N/A   Scattered Clouds
3:35 PM 83.8 °F 84.0 °F 60.4 °F 45% 30.06 in 10.0 mi SSW 8.1 mph - N/A   Scattered Clouds
3:55 PM 84.0 °F 84.4 °F 61.0 °F 46% 30.05 in 10.0 mi South 10.4 mph - N/A   Clear
4:15 PM 84.7 °F 84.8 °F 60.8 °F 44% 30.04 in 10.0 mi SSW 10.4 mph - N/A   Clear
4:35 PM 84.2 °F 84.2 °F 59.9 °F 44% 30.04 in 10.0 mi South 12.7 mph - N/A   Clear
4:55 PM 84.2 °F 84.4 °F 60.6 °F 45% 30.04 in 10.0 mi SW 8.1 mph - N/A   Clear
5:15 PM 84.2 °F 84.4 °F 60.8 °F 45% 30.04 in 10.0 mi South 5.8 mph - N/A   Clear
5:35 PM 83.8 °F 84.1 °F 60.8 °F 46% 30.04 in 10.0 mi South 9.2 mph - N/A   Scattered Clouds
5:55 PM 81.7 °F 82.3 °F 60.8 °F 49% 30.04 in 10.0 mi South 6.9 mph - N/A   Clear
6:15 PM 80.2 °F 81.3 °F 61.9 °F 53% 30.03 in 10.0 mi South 5.8 mph - N/A   Clear
6:35 PM 78.4 °F - 61.9 °F 57% 30.03 in 10.0 mi South 5.8 mph - N/A   Clear
6:55 PM 77.4 °F - 61.7 °F 58% 30.03 in 10.0 mi South 5.8 mph - N/A   Clear
7:15 PM 77.9 °F - 62.6 °F 59% 30.03 in 10.0 mi SSE 5.8 mph - N/A   Clear
7:35 PM 77.4 °F - 63.1 °F 61% 30.03 in 10.0 mi SSE 4.6 mph - N/A   Clear
7:55 PM 75.6 °F - 64.4 °F 68% 30.03 in 10.0 mi SSE 5.8 mph - N/A   Clear
8:15 PM 73.9 °F - 64.2 °F 72% 30.03 in 10.0 mi SSE 4.6 mph - N/A   Clear
8:35 PM 72.7 °F - 63.1 °F 72% 30.03 in 10.0 mi SSE 5.8 mph - N/A   Clear
8:55 PM 71.6 °F - 62.6 °F 73% 30.03 in 10.0 mi SSE 5.8 mph - N/A   Clear
9:15 PM 71.4 °F - 62.6 °F 74% 30.04 in 10.0 mi SSE 4.6 mph - N/A   Clear
9:35 PM 69.8 °F - 62.2 °F 77% 30.05 in 10.0 mi SSE 5.8 mph - N/A   Clear
9:55 PM 69.3 °F - 61.9 °F 77% 30.05 in 10.0 mi SSE 5.8 mph - N/A   Clear
10:15 PM 68.4 °F - 61.7 °F 79% 30.05 in 10.0 mi SSE 5.8 mph - N/A   Clear
10:35 PM 67.5 °F - 61.7 °F 82% 30.04 in 10.0 mi SSE 6.9 mph - N/A   Clear
10:55 PM 67.5 °F - 62.1 °F 83% 30.05 in 10.0 mi SSE 6.9 mph - N/A   Clear
11:15 PM 67.3 °F - 62.2 °F 84% 30.04 in 10.0 mi SSE 6.9 mph - N/A   Clear
11:35 PM 67.6 °F - 62.8 °F 84% 30.04 in 7.0 mi SSE 6.9 mph - N/A   Clear
11:55 PM 67.3 °F - 63.1 °F 87% 30.04 in 7.0 mi SSE 6.9 mph - N/A   Clear